Skip Page Navigation
NASA JPL Caltech
NASA Logo - Jet Propulsion Laboratory + View the NASA Portal
+ Center for Near-Earth Object Studies
JPL Home Earth Solar System Stars & Galaxies Technology
JPL Solar System Dynamics
BODIES ORBITS EPHEMERIDES TOOLS PHYSICAL DATA DISCOVERY FAQ SITE MAP
IMPORTANT: The SSD Announcement email list is now available. Major changes are coming in the near future, including possible hostname and/or URL changes. To be notified of such changes, subscribe to this email list.

Please visit this page for more details.


JPL Small-Body Database Browser
Search: [ help ]  
80496 (2000 AX48)
Classification: Main-belt Asteroid          SPK-ID: 2080496
Ephemeris | Orbit Diagram | Orbital Elements | Mission Design | Physical Parameters | Discovery Circumstances | Close-Approach Data ]

[ show orbit diagram ]
Orbital Elements at Epoch 2458600.5 (2019-Apr-27.0) TDB
Reference: JPL 12 (heliocentric ecliptic J2000)
 Element Value Uncertainty (1-sigma)   Units 
e .2345203217185966 5.1437e-08  
a 2.388482520610471 1.2291e-08 au
q 1.828334831457658 1.207e-07 au
i 11.33962125693566 5.4182e-06 deg
node 74.63769455986825 2.6859e-05 deg
peri 342.9685168195439 2.9009e-05 deg
M 81.66971789345509 1.2662e-05 deg
tp 2458294.627746598038
(2018-Jun-25.12774660)
4.6223e-05 TDB
period 1348.284456772083
3.69
1.0407e-05
2.849e-08
d
yr
n .2670059705812177 2.061e-09 deg/d
Q 2.948630209763282 1.5173e-08 au
  Orbit Determination Parameters
   # obs. used (total)      520  
   data-arc span      9087 days (24.88 yr)  
   first obs. used      1994-05-14  
   last obs. used      2019-03-31  
   planetary ephem.      DE431  
   SB-pert. ephem.      SB431-N16  
   condition code      0  
   norm. resid. RMS      .57787  
   source      ORB  
   producer      Otto Matic  
   solution date      2019-Jul-13 12:30:55  

Additional Information
 Earth MOID = .843772 au 
 Jupiter MOID = 2.40399 au 
 T_jup = 3.470 
[ show covariance matrix ]

Ephemeris | Orbit Diagram | Orbital Elements | Mission Design | Physical Parameters | Discovery Circumstances | Close-Approach Data ]

Physical Parameter Table
Parameter Symbol Value Units Sigma Reference Notes
absolute magnitude H 15.4   n/a MPO468762  

80496 (2000 AX48)          Discovered 2000-Jan-05 by LINEAR at Socorro
Reference: 20040504/Numbers.arcLast Updated: 2004-07-16

[ show close-approach data ]
Alternate Designations
 2000 AX48 = 2003 WF126 
Ephemeris | Orbit Diagram | Orbital Elements | Mission Design | Physical Parameters | Discovery Circumstances | Close-Approach Data ]
ABOUT SSD CREDITS/AWARDS PRIVACY/COPYRIGHT GLOSSARY LINKS
FirstGov 2020-Jan-17 22:00 UT
(server date/time)  
NASA Home Page
Site Manager:   Ryan S. Park
Webmaster  Alan B. Chamberlin